Location: Caltech
(34.1382°N, 118.1253°W)
Time: 15:16:39
(UTC-07:00)

Oscar 10/S400 - Visible Passes

Search period start: 30 May 2016 00:00
Search period end: 09 June 2016 00:00
Orbit: 4036 x 35411 km, 26.7° (Epoch: 28 May)

Date Brightness Start Highest point End Pass type
(mag) Time Alt. Az. Time Alt. Az. Time Alt. Az.
04 Jun ? 03:38:36 10° W 04:01:33 11° SSW 04:02:39 10° SSW visible
05 Jun ? 02:38:17 10° W 03:21:05 12° S 03:22:24 10° S visible
05 Jun ? 18:19:05 10° WSW 18:56:01 11° WSW 02:23:07 30° SW visible
06 Jun ? 16:30:18 10° WSW 18:19:19 19° WSW 01:42:04 37° SSW visible
07 Jun ? 15:23:35 10° SW 17:45:01 27° WSW 01:01:02 41° SSW visible
